Location: Bord�res
(43.2583°N, 0.0495°E)
Time: 13:51:38
(UTC+00:00)

Daily predictions for brighter satellites

Satellite Brightness Start Highest point End
(mag) Time Altitude Azimuth Time Altitude Azimuth Time Altitude Azimuth
IRS-1A Rocket 4.4 19:49:52 10° SSE 19:55:17 60° ENE 20:00:42 10° N
CZ-4 R/B 4.4 19:53:05 10° SW 19:55:40 16° W 19:58:17 10° NW
SL-19 R/B 4.3 19:53:21 10° SSE 19:56:47 81° WSW 20:00:49 10° NNW
USA 276 4.2 19:55:17 10° NW 19:57:54 23° N 20:00:31 10° ENE
Cosmos 1825 2.3 19:54:11 10° S 19:57:56 80° W 20:01:42 10° N
Cosmos 2369 3.9 19:52:38 10° NNW 19:58:14 60° ENE 20:03:48 10° SE
Cosmos 1980 Rocket 2.7 19:54:51 10° NNW 20:00:16 46° ENE 20:05:40 10° SE
BREEZE-M DEB (TANK) 3.1 19:57:54 10° SSW 20:00:46 42° SE 20:08:30 10° ENE
MOS 1 4.4 19:55:52 10° SSE 20:01:29 70° ENE 20:07:08 10° N
Cosmos 1437 2.3 19:59:27 10° N 20:02:14 88° E 20:04:58 10° S
COSMOS 2406 3.4 19:58:09 10° SSW 20:03:49 79° WNW 20:09:34 10° NNE
Cosmos 1242 Rocket 2.7 20:01:24 10° NNW 20:05:00 73° W 20:08:30 10° S
Cosmos 2322 Rocket 4.2 20:06:28 10° N 20:09:38 15° NE 20:12:47 10° ENE
SPOT 3 Rocket 4.2 20:04:53 10° SE 20:09:44 40° ENE 20:14:35 10° N
Gbstr 26 Del rocket 4.5 20:09:44 10° NW 20:12:56 26° NNE 20:16:15 10° ENE
Cosmos 2279 Rocket 4.2 20:17:13 10° N 20:23:25 76° W 20:29:35 10° S
ISS -2.4 20:22:23 10° NW 20:25:31 34° NNE 20:28:38 10° E
Cosmos 1076 Rocket 3.6 20:21:21 10° S 20:25:35 57° E 20:29:53 10° NNE
ERS-2 2.1 20:24:52 10° NNE 20:28:32 89° W 20:32:10 10° SSW
Landsat 7 3.8 20:27:44 10° SSE 20:32:28 71° ENE 20:37:13 10° N
Resurs 1-3 4.2 20:29:24 10° S 20:33:42 56° W 20:38:02 10° NNW
Cosmos 1538 Rocket 4.0 20:30:41 10° S 20:35:49 61° ESE 20:40:56 10° NNE
Cosmos 1842 Rocket 3.9 20:31:50 10° NNW 20:36:19 70° W 20:40:45 10° S
SL-16 R/B 3.4 20:33:09 10° N 20:38:01 28° NE 20:42:00 14° ESE
ERBS 3.3 20:38:08 10° WNW 20:41:09 36° SW 20:43:15 16° S
Cosmos 2098 Rocket 2.1 20:38:44 10° S 20:41:43 84° E 20:45:10 10° N
Atlas Centaur 2 3.2 20:40:30 10° SSW 20:42:16 12° S 20:42:46 12° S
Cosmos 1271 Rocket 3.8 20:44:36 10° N 20:48:13 32° ENE 20:50:02 21° ESE
Nadezhda 4 Rocket 4.0 20:45:28 10° S 20:51:36 89° W 20:57:53 10° N
GP-B 3.8 20:48:13 10° NNE 20:52:19 36° E 20:54:29 22° SE
Meteor 2-8 Rocket 4.4 20:46:25 10° N 20:52:36 90° ESE 20:58:23 12° S
CZ-2C R/B 3.7 20:48:08 10° NNE 20:52:37 59° ESE 20:56:44 12° S
GRACE-FO 1 4.4 20:50:42 10° N 20:54:19 78° E 20:56:51 18° S
Ariane Rocket 4.0 20:49:46 10° S 20:54:35 43° W 20:59:26 10° NNW
GRACE-FO 2 4.4 20:51:09 10° N 20:54:46 79° E 20:57:18 18° S
Cosmos 1697 Rocket 4.1 20:51:10 10° NW 20:56:12 34° WSW 21:01:14 10° SSW
Cosmos 304 Rocket 4.0 20:57:45 10° NNW 21:02:29 56° ENE 21:05:03 26° SE
SPOT 1/Viking Rocket 3.6 21:02:29 18° SSE 21:06:27 85° W 21:11:42 10° NNW
Cosmos 2082 Rocket 3.4 21:03:57 10° SW 21:09:18 45° WNW 21:14:45 10° NNE
USA 245 3.8 21:06:56 20° SSE 21:10:38 88° E 21:15:05 10° NNW
Cosmos 2278 4.1 21:08:14 10° NNW 21:13:47 59° WSW 21:17:44 19° S
Cosmos 1428 Rocket 4.4 21:09:22 16° S 21:14:21 68° E 21:20:25 10° NNE
Resurs 01 Rocket 3.0 21:12:37 10° SSW 21:16:40 35° W 21:20:46 10° NNW
BREEZE-M DEB (TANK) 2.7 21:14:58 10° WNW 21:18:12 90° SSE 21:23:01 22° ESE
BREEZE-M DEB (TANK) 3.9 21:15:50 10° WNW 21:19:31 85° SSW 21:26:51 21° ESE
Cosmos 923 Rocket 4.0 21:17:39 14° S 21:22:15 69° ESE 21:27:35 10° NNE
Cosmos 2360 Rocket 3.4 21:17:59 10° N 21:22:51 29° NE 21:25:36 20° E
Meteor 1-26 Rocket 4.3 21:21:15 10° N 21:27:16 87° E 21:30:34 27° S
Cosmos 1553 Rocket 4.3 21:22:00 10° N 21:27:52 48° ENE 21:30:29 30° SE
Cosmos 371 Rocket 4.1 21:24:03 10° NNW 21:28:38 44° WSW 21:31:29 21° SSW
Cosmos 2333 Rocket 4.1 21:25:44 10° N 21:29:33 18° NE 21:32:47 12° E
CARTOSAT-1 3.6 21:29:56 32° S 21:31:53 73° WSW 21:36:13 10° NNW
Cosmos 2151 4.1 21:29:27 10° SSW 21:33:29 42° WNW 21:37:34 10° N
USA 276 2.8 21:31:31 10° NW 21:34:35 47° NNE 21:35:05 42° NE
Cosmos 2056 Rocket 4.3 21:30:42 10° N 21:35:44 39° ENE 21:37:36 30° ESE
Cosmos 1812 3.2 21:33:17 10° N 21:36:58 41° ENE 21:37:16 40° E
ATLAS 3B R/B 3.3 21:31:09 10° NW 21:38:06 55° WSW 21:42:22 25° S
USA 267 3.4 21:33:07 10° ENE 21:39:23 46° SE 21:45:36 10° SSW
Cosmos 1933 4.2 21:37:18 10° NNW 21:41:11 45° W 21:42:58 27° SSW
Cosmos 2084 3.8 21:42:47 41° E 21:42:47 41° E 21:46:04 10° NE
ERS-1 Rocket 2.9 21:40:38 36° SSE 21:42:43 87° WSW 21:47:47 10° NNW
ARIANE 5 R/B 2.8 21:41:11 36° S 21:42:57 68° WSW 21:47:25 10° NNW
SPOT 5 2.5 21:41:37 44° S 21:42:58 85° WSW 21:47:22 10° NNW
SL-27 R/B 4.1 21:44:33 24° ENE 21:44:33 24° ENE 21:46:28 10° NE
Cosmos 1980 Rocket 3.8 21:39:21 10° NW 21:43:59 27° WSW 21:47:54 13° SSW
Terra 1.8 21:43:31 44° SE 21:44:57 71° ENE 21:49:43 10° N
Cosmos 1515 Rocket 4.2 21:45:07 10° N 21:49:17 39° ENE 21:49:44 38° E
Cosmos 2322 Rocket 2.1 21:48:58 10° NNW 21:54:38 80° ENE 21:56:28 44° SE
Spot 2 Rocket 4.2 21:52:07 26° SSW 21:54:41 47° W 21:59:38 10° NNW
Cosmos 2112 Rocket 3.9 21:54:10 29° SSW 21:56:56 89° ESE 22:02:15 10° NNE
Cosmos 1371 Rocket 4.1 21:51:52 10° NNW 21:57:14 67° ENE 21:58:42 46° SE
S3M 4.3 21:51:18 10° N 21:57:35 56° ENE 21:59:44 39° SE
Cosmos 1680 Rocket 3.6 21:54:17 22° SSW 21:57:47 78° WNW 22:03:04 10° NNE
Cosmos 1766 Rocket 3.8 21:57:59 37° SSW 21:59:35 67° W 22:03:57 10° N
Cosmos 1809 Rocket 4.4 21:56:27 28° SSW 21:59:57 83° W 22:06:09 10° N
Gbstr 26 Del rocket 2.6 21:56:16 10° NW 22:00:05 84° NNE 22:00:26 73° ESE
H-2A R/B 3.5 21:56:27 10° NNE 22:00:37 59° ESE 22:00:38 59° ESE
ISS -2.6 21:59:11 10° WNW 22:01:36 35° WSW 22:01:36 35° WSW
Cosmos 1862 3.1 22:02:44 78° ESE 22:02:50 79° E 22:06:50 10° N
COSMOS 2455 3.7 22:05:54 30° E 22:05:54 30° E 22:10:35 10° NE
Cosmos 1151 Rocket 3.5 22:02:35 10° NNW 22:06:51 55° W 22:07:51 44° SW
Cosmos 1328 Rocket 3.6 22:03:43 10° NNW 22:08:10 72° W 22:08:54 58° SSW
Cosmos 1782 4.0 22:07:11 10° NNW 22:10:51 35° W 22:11:47 31° WSW
USA 234 4.2 22:07:28 13° E 22:12:48 42° NNE 22:18:53 10° NW
Cosmos 2219 Rocket 3.4 22:12:31 10° N 22:17:27 31° NE 22:19:12 26° E
SL-16 R/B 2.8 22:16:54 10° NW 22:22:20 48° WSW 22:23:52 38° SSW
Cosmos 2237 4.2 22:18:54 10° NNW 22:24:37 79° WSW 22:25:50 57° S
Meteor 2-21 Rocket 4.4 22:23:08 41° SSW 22:25:28 83° W 22:31:41 10° N
Meteor 2-6 Rocket 4.3 22:21:14 10° NNW 22:26:36 66° W 22:27:52 49° SSW
COSMOS 2428 3.9 22:22:52 10° N 22:27:54 31° NE 22:29:40 26° E
Cosmos 292 Rocket 3.6 22:29:57 10° NNW 22:34:44 76° ENE 22:34:52 75° E
Cosmos 1624 Rocket 4.1 22:32:53 10° NNW 22:38:01 61° WSW 22:38:38 56° SW
Cosmos 1500 Rocket 3.6 22:43:12 78° NNW 22:43:12 78° NNW 22:47:23 10° N
CZ-3B R/B 3.4 22:34:11 10° NW 22:42:59 41° NNE 22:44:24 30° ENE
ATLAS 5 CENTAUR R/B 3.7 22:42:02 10° NNW 22:46:54 31° NE 22:49:59 20° E
Meteor 1-27 Rocket 3.6 22:44:02 10° N 22:49:42 89° E 22:50:25 70° SSE
Cosmos 1420 Rocket 3.9 22:44:35 10° NNW 22:49:54 73° WSW 22:50:16 70° SW
NOSS 3-1 (C) 4.1 22:47:58 10° NW 22:55:33 77° NE 22:58:46 43° SE
Cosmos 972 Rocket 3.9 22:55:32 79° SE 22:55:41 81° ESE 23:00:48 10° NNE
Cosmos 1743 Rocket 4.1 23:02:37 54° WNW 23:02:37 54° WNW 23:06:54 10° N
Cosmos 2285 Rocket 4.0 22:57:27 10° NNW 23:03:46 71° ENE 23:04:48 60° ESE
Meteor 1-20 Rocket 4.1 23:05:25 69° ESE 23:05:32 69° E 23:11:10 10° NNE
Cosmos 2360 Rocket 2.7 23:01:40 10° NW 23:07:02 46° WSW 23:07:21 46° WSW
Cosmos 2315 Rocket 3.9 23:01:55 10° N 23:08:16 79° W 23:09:19 63° SSW
Cosmos 1452 Rocket 3.4 23:03:11 10° NNW 23:08:28 84° ENE 23:08:29 84° ENE
USA 229 DEB 4.2 23:01:52 10° NNW 23:09:08 61° NE 23:12:08 38° ESE
USA 229 4.2 23:01:58 10° NNW 23:09:13 61° NE 23:12:15 38° ESE
Spot 4 3.9 23:14:03 73° WNW 23:14:03 73° WNW 23:18:35 10° NNW
Sich 1 3.5 23:14:37 57° N 23:14:37 57° N 23:18:08 10° N
Cosmos 2333 Rocket 2.0 23:08:53 10° NNW 23:14:33 84° WSW 23:14:46 81° SSW
Meteor 1-22 4.5 23:14:50 85° SSW 23:14:58 88° W 23:20:30 10° N
Cosmos 1633 Rocket 4.3 23:17:04 34° NE 23:17:04 34° NE 23:19:59 10° NNE
Cosmos 1666 Rocket 4.5 23:20:10 43° NE 23:20:10 43° NE 23:23:25 10° NNE
Cosmos 489 Rocket 4.3 23:20:59 71° S 23:21:40 82° ESE 23:28:03 10° NNE
Cosmos 2228 Rocket 3.8 23:17:44 10° NNW 23:21:21 47° WNW 23:21:21 47° WNW
USA 267 3.7 23:16:05 10° NE 23:22:28 59° NNW 23:28:52 10° WSW
Terra 4.2 23:22:24 12° W 23:23:12 13° W 23:25:20 10° WNW
Cosmos 2322 3.6 23:20:06 10° NNW 23:25:49 72° WSW 23:25:53 72° WSW
NOSS 3-1 (A) 4.1 23:22:05 10° NW 23:29:41 78° NE 23:32:41 45° SE
Cosmos 2297 Rocket 3.4 23:32:08 29° E 23:32:08 29° E 23:36:03 10° NE
Meteor 1-18 Rocket 4.3 23:26:13 10° N 23:32:04 65° ENE 23:32:22 64° E
Cosmos 1110 Rocket 4.0 23:30:25 10° NNW 23:35:37 75° NE 23:35:37 75° NE
Cosmos 2237 Rocket 3.1 23:32:27 10° NNW 23:37:46 39° ENE 23:38:58 35° E
Cosmos 2322 Rocket 4.2 23:34:58 10° WNW 23:37:54 15° W 23:38:16 14° WSW
Meteor 1-25 Rocket 4.2 23:38:17 66° W 23:38:36 68° WNW 23:44:10 10° N
Cosmos 1331 Rocket 4.0 23:36:53 10° NNW 23:41:53 74° NE 23:41:53 74° NE
Cosmos 2227 Rocket 3.5 23:43:37 27° E 23:43:37 27° E 23:47:27 10° NE
Cosmos 1745 Rocket 4.2 23:43:09 55° ESE 23:43:31 56° E 23:49:37 10° NNE
Cosmos 1862 Rocket 4.4 23:39:43 10° N 23:43:02 47° NNE 23:43:02 47° NNE
ALOS 2 3.5 23:50:25 43° NW 23:50:25 43° NW 23:53:41 10° NNW
COSMOS 2455 3.6 23:49:00 34° WSW 23:51:06 48° NW 23:56:56 10° NNE
